Flag for U.S.A. Weather past 2 weeks in Springfield, Massachusetts, U.S.A.

Now
25 °F

Clear.


Feels Like: 25 °F
Forecast: 1 / 27 °F
Wind: No wind

Location: Barnes Municipal Airport

Current Time: Feb 28, 2015 at 7:43:31 PM

Latest Report: Feb 28, 2015 at 6:53 PM


Visibility: 10 mi

Pressure: 30.74 "Hg

Humidity: 28%

Dew point: -4 °F

Location of SpringfieldLocation

Historic Weather in Springfield — Graph

°F

Springfield temperature yesterday

Maximum temperature yesterday: 26 °F (at 2:53 PM)
Minimum temperature yesterday: 10 °F (at 3:53 AM)
Average temperature yesterday: 17 °F

Past Weeks' High & Low Weather Summary

 TemperatureHumidityPressure
High40 °F (Feb 22, 3:53 PM)93% (Feb 22, 5:53 AM)30.80 "Hg (Feb 22, 5:53 AM)
Low-13 °F (Feb 21, 4:53 AM)24% (Feb 28, 3:53 PM)29.43 "Hg (Feb 15, 5:02 AM)
Average14 °F57%30.07 "Hg
* Reported Feb 13 5:53 PM — Feb 28 5:53 PM, Springfield, Weather by CustomWeather, © 2015

Note: Actual official high and low records may vary slightly from our data, if they occured in-between our weather recording intervals... More about our weather records

Advertising

Springfield weather history for previous 24 hours

 ConditionsComfort  
Time TempWeatherWind HumidityBarometerVisibility
5:53 PM
Sat, Feb 28
26 °FClear.7 mph29%30.72 "Hg10 mi
4:53 PM29 °FSunny.10 mph30%30.71 "Hg10 mi
3:53 PM31 °FSunny.12 mph24%30.70 "Hg10 mi
2:53 PM29 °FSunny.6 mph30%30.71 "Hg10 mi
1:53 PM28 °FSunny.7 mph32%30.71 "Hg10 mi
12:53 PM26 °FSunny.No wind31%30.74 "Hg10 mi
11:53 AM23 °FSunny.No wind33%30.77 "Hg10 mi
10:53 AM22 °FSunny.No wind36%30.78 "Hg10 mi
9:53 AM16 °FSunny.No wind47%30.79 "Hg10 mi
8:53 AM11 °FSunny.No wind61%30.80 "Hg10 mi
7:53 AM3 °FSunny.No wind72%30.78 "Hg10 mi
6:53 AM-4 °FSunny.No wind79%30.75 "Hg10 mi
5:53 AM-3 °FClear.No wind75%30.73 "Hg10 mi
4:53 AM2 °FClear.7 mph69%30.69 "Hg10 mi
3:53 AM0 °FClear.No wind71%30.67 "Hg10 mi
2:53 AM5 °FClear.No wind60%30.66 "Hg10 mi
1:53 AM10 °FClear.6 mph55%30.64 "Hg10 mi
12:53 AM12 °FClear.7 mph51%30.62 "Hg10 mi
11:53 PM
Fri, Feb 27
13 °FClear.10 mph51%30.60 "Hg10 mi
10:53 PM14 °FClear.6 mph49%30.59 "Hg10 mi
9:53 PM15 °FClear.8 mph46%30.56 "Hg10 mi
8:53 PM17 °FClear.9 mph45%30.53 "Hg10 mi
7:53 PM18 °FClear.8 mph43%30.49 "Hg10 mi
Weather by CustomWeather, © 2015

See weather overviewHow to use our weather pages